CAPE
4 9 10 12 15 23 17 22 15 16 22 13 20 20 20 18 17 15 18 21 845 693
6 4 11 8 12 20 17 18 15 13 11 19 22 26 18 15 16 16 12 15 238 809
5 5 8 8 8 7 9 12 13 15 13 12 22 24 18 13 9 12 11 11 9 503
6 6 6 6 8 9 8 9 9 11 18 19 15 16 20 11 14 13 12 11 5 15
3 4 6 8 8 10 8 9 9 11 14 12 15 20 20 13 8 14 18 7 3 5
4 4 6 8 8 10 8 7 8 9 14 15 24 20 17 14 7 7 14 15 10 8
10 4 4 5 5 7 9 7 19 21 22 17 22 23 21 14 10 4 7 12 13 11
6 6 2 2 3 12 13 12 17 14 23 18 22 26 23 14 11 11 5 5 7 13
2 0 0 1 2 2 5 11 7 12 18 15 24 8 13 17 22 11 9 7 6 8
0 0 0 0 0 0 0 2 3 15 24 23 20 13 3 8 17 15 19 14 3 6
0 0 0 0 0 0 0 0 0 1 7 12 18 9 5 0 17 14 13 14 13 5
5 0 0 0 0 0 0 0 0 0 0 2 9 10 6 0 4 16 12 13 20 17
4 0 0 0 0 0 0 0 0 0 0 1 1 7 9 4 0 0 2 8 6 9
1 0 0 0 0 0 0 0 0 0 0 0 1 0 4 4 0 1 3 5 12 15
CIN
-0 -0 -0 -0 -0 -0 -0 -0 -0 -0 -0 -0 -0 -0 -0 -0 -0 -0 -0 -0 -0 -0
-0 -0 -0 -0 -0 -0 -0 -0 -0 -0 -0 -0 -0 -0 -0 -0 -0 -0 -0 -0 -9 -0
-0 -0 -0 -0 -0 -0 -0 -0 -0 -0 -0 -0 -0 -0 -0 -0 -0 -0 -0 -0 -0 -0
-0 -0 -0 -0 -0 -0 -0 -0 -0 -0 -0 -0 -0 -0 -0 -0 -0 -0 -0 -0 -0 -2
-0 -0 -0 -0 -0 -0 -0 -0 -0 -0 -0 -0 -0 -0 -0 -0 -0 -0 -0 -0 -0 -0
-0 -0 -0 -0 -0 -0 -0 -0 -0 -0 -0 -0 -0 -0 -0 -0 -0 -0 -0 -0 -0 -0
-0 -0 -0 -0 -0 -0 -0 -0 -0 -0 -0 -0 -0 -0 -0 -0 -0 -0 -0 -0 -0 -0
-0 -0 -0 -0 -0 -0 -0 -0 -0 -0 -0 -0 -0 -0 -0 -0 -0 -0 -0 -0 -0 -0
-0 -0 -0 -0 -0 -0 -0 -0 -0 -0 -0 -0 -0 -0 -0 -0 -0 -0 -0 -0 -0 -0
-0 -0 -0 -0 -0 -0 -0 -0 -0 -0 -0 -0 -0 -0 -0 -0 -0 -0 -0 -0 -0 -0
-0 -0 -0 -0 -0 -0 -0 -0 -0 -0 -0 -0 -0 -0 -0 -0 -0 -0 -0 -0 -0 -0
-0 -0 -0 -0 -0 -0 -0 -0 -0 -0 -0 -0 -0 -0 -0 -0 -0 -0 -0 -0 -0 -0
-0 -0 -0 -0 -0 -0 -0 -0 -0 -0 -0 -0 -0 -0 -0 -0 -0 -0 -0 -0 -0 -0
-0 -0 -0 -0 -0 -0 -0 -0 -0 -0 -0 -0 -0 -0 -0 -0 -0 -0 -0 -0 -0 -0
Wind_Speed
14 10 10 12 12 10 11 14 20 18 18 18 17 15 14 11 11 12 12 20 16 13
13 15 13 14 12 10 13 13 19 21 20 18 17 16 17 11 14 12 12 13 16 15
13 13 13 12 15 15 14 15 17 19 20 22 18 17 16 13 14 14 10 9 15 14
13 13 13 12 13 14 15 16 17 18 17 17 20 20 16 15 16 16 14 12 11 17
13 13 13 13 14 14 15 15 17 18 18 19 19 17 18 16 15 17 16 16 16 16
14 14 14 14 14 15 16 16 17 18 20 20 19 19 19 15 16 16 17 16 16 16
12 13 13 13 13 14 14 15 15 15 16 16 17 17 17 17 15 15 16 18 17 17
13 11 12 13 13 12 13 14 14 15 15 16 16 15 19 18 18 16 16 18 19 18
14 14 13 13 13 13 13 13 14 15 16 17 15 32 28 22 16 18 17 17 18 18
14 14 14 13 14 15 15 14 15 15 15 16 19 34 31 27 14 15 16 17 18 16
14 14 14 14 15 15 14 15 14 17 18 17 17 33 32 26 15 13 16 17 20 18
12 15 15 15 16 15 14 15 15 15 19 21 20 35 35 23 15 15 16 15 18 20
10 14 14 14 15 14 14 14 12 15 17 22 19 31 32 25 13 17 14 15 17 30
11 12 13 12 12 13 13 13 14 15 15 17 20 21 30 30 16 13 12 13 14 14
Wind_Direction
4 360 358 353 347 341 336 333 334 331 332 330 326 320 317 308 301 293 291 296 249 239
6 5 2 358 350 346 343 339 335 334 337 333 331 330 326 313 311 307 305 292 279 238
6 6 3 359 359 352 351 346 340 339 336 336 338 336 331 324 316 315 312 303 307 257
6 9 6 3 360 357 354 352 352 344 343 341 340 340 341 340 338 329 326 331 303 303
8 10 8 4 360 359 2 360 357 351 353 349 351 348 345 348 357 346 0 5 8 350
10 11 8 4 0 359 3 2 2 359 359 350 355 352 357 358 4 8 4 9 14 16
13 10 7 4 3 357 3 3 3 1 356 347 1 4 0 5 7 16 17 12 13 14
14 9 9 8 6 1 7 8 7 4 360 358 10 13 10 7 11 12 17 18 14 15
10 12 15 12 10 9 11 10 12 8 8 4 14 17 16 15 11 16 17 16 15 16
14 15 13 14 14 15 14 12 17 16 12 12 15 18 18 15 11 12 16 18 21 16
18 17 15 16 17 16 14 16 18 20 17 19 13 18 18 14 8 13 18 13 23 16
20 17 19 19 15 15 15 18 20 24 21 20 17 17 16 16 12 14 20 19 16 22
23 28 25 22 18 15 19 22 18 24 23 25 20 19 18 18 13 15 12 16 16 21
30 36 30 29 24 23 25 24 24 23 24 23 23 20 22 23 22 15 15 12 6 12